Regional Weather Roundup
Issued by NWS Cleveland, OH

Home | Current Version | Previous Version | Graphics & Text | Print | Product List | Glossary On
Versions: 1 2 3 4 5 6 7 8 9 10 11 12 13 14 15 16 17 18 19 20 21 22 23 24 25 26 27 28 29 30 31 32 33 34 35 36 37 38 39 40 41 42 43 44 45 46 47 48 49 50
573
ASUS41 KCLE 280310
RWRCLE
OHIO REGIONAL WEATHER ROUNDUP
NATIONAL WEATHER SERVICE CLEVELAND, OH
1100 PM EDT FRI MAY 27 2016

NOTE: "FAIR" INDICATES FEW OR NO CLOUDS BELOW 12,000 FEET WITH NO
SIGNIFICANT WEATHER AND/OR OBSTRUCTIONS TO VISIBILITY.

OHZ001>008-015>018-024>027-034-035-043-044-280400-
   NORTHWEST OHIO

CITY           SKY/WX    TMP DP  RH WIND       PRES   REMARKS
DEFIANCE       CLEAR     76  57  51 S6        29.97R
FINDLAY        CLOUDY    75  60  59 S8        29.98R
TOLEDO EXPRESS CLEAR     70  64  81 CALM      29.97R
TOLEDO EXEC    PTCLDY    74  62  66 SE5       29.98R
LIMA           PTCLDY    76  60  57 S6        30.00R
$$

OHZ009>014-019>023-028>033-038-089-280400-
   NORTHEAST OHIO

CITY           SKY/WX    TMP DP  RH WIND       PRES   REMARKS
CLE-HOPKINS    CLOUDY    77  62  59 S8        30.03R
CLE-LAKEFRONT  PTCLDY    80  63  55 S8        29.99R
CUY CO. ARPT   MOCLDY    75  66  73 S8        30.03R
LORAIN-ELYRIA  PTCLDY    75  61  61 S7        30.01R
ASHTABULA      PTCLDY    67  64  90 CALM      30.04R
AKRON-CANTON   PTCLDY    74  63  68 S6        30.05R
WOOSTER        PTCLDY    72  63  73 CALM      30.05R
MANSFIELD      PTCLDY    75  64  68 S7        30.04R
YOUNGSTOWN     MOCLDY    69  62  78 S5        30.05R
$$

OHZ042-051>053-060>062-070>072-077>081-280400-
  SOUTHWEST OHIO

CITY           SKY/WX    TMP DP  RH WIND       PRES   REMARKS
CINC-COVINGTON MOCLDY    73  66  78 S6        30.02R
CINC-LUNKEN    PTCLDY    69  68  96 CALM      30.02R
HAMILTON       PTCLDY    70  65  84 CALM      30.02R
DAYTON         CLOUDY    76  62  62 S7        30.03R
WRIGHT-PAT AFB PTCLDY    75  64  68 CALM      30.02R
DAYTON GENERAL CLEAR     73  62  68 S5        30.02R
WILMINGTON     MOCLDY    72  63  73 S3        30.04R
$$

OHZ036-037-039>041-045>050-054>059-063>069-073>076-082>088-280400-
  CENTRAL AND SOUTHEAST OHIO

CITY           SKY/WX    TMP DP  RH WIND       PRES   REMARKS
COLUMBUS       MOCLDY    78  63  59 S5        30.02R
OSU AIRPORT    CLOUDY    79  63  57 S7        30.02R
BOLTON FIELD   PTCLDY    72  64  75 S5        30.03R
RICKENBACK AFB PTCLDY    74  64  70 SE6       30.02R
NEWARK         PTCLDY    71  65  81 CALM      30.03R
MARION         CLOUDY    74  62  66 S5        30.03R
LANCASTER      PTCLDY    72  65  78 CALM      30.04R
ZANESVILLE     PTCLDY    75  66  73 SE5       30.05R
NEW PHILLY     MOCLDY    73  65  75 SE5       30.05R
$$




USA.gov is the U.S. government's official web portal to all federal, state and local government web resources and services.